GFSSE_con_mlcape_144.txt.gz
CAPE
1712 1538 1370 953 868 957 948 675 844 682 600 208 96 187 433 848 954 904 798 931 999 791 735 667 456 558 519 396 527 393 343 252 150 45 84 175 113 65 194 177 290 195 286
1486 1742 1573 1102 1006 1007 1018 1100 985 757 545 237 166 195 760 803 923 889 829 892 820 743 728 619 530 550 342 355 348 251 209 65 101 133 33 58 77 66 82 194 169 232 174
1366 1946 1647 1310 1110 952 823 763 599 568 305 101 99 156 620 893 887 876 789 639 733 810 557 591 481 370 178 242 114 2 6 2 15 57 22 13 40 43 38 153 220 233 154
1549 1971 1833 1597 1327 1078 938 746 411 377 395 203 68 69 482 690 788 739 684 665 692 747 641 527 459 259 154 58 0 0 24 12 8 3 15 20 42 67 56 58 110 83 65
1908 2161 2044 1848 1616 1382 1269 984 650 774 812 448 164 93 258 546 825 726 705 753 728 723 648 496 297 159 19 0 0 0 17 18 8 0 23 18 42 79 55 40 45 40 33
1950 2160 2275 1850 1976 1594 1512 1324 1164 1466 1127 689 281 98 97 391 671 772 671 621 672 724 647 391 164 62 66 136 29 14 6 15 0 7 6 34 36 48 47 31 38 35 37
1718 2278 2229 1875 2193 1935 1632 1644 1621 1692 1313 944 472 196 108 235 598 797 705 536 673 606 586 275 144 151 259 51 19 16 31 30 6 0 3 18 41 21 20 30 26 36 47
1176 2460 2386 2086 2011 2070 1860 1703 1319 1703 1515 1102 607 353 95 327 883 806 688 647 627 515 438 365 202 152 63 34 22 22 44 28 9 1 1 30 29 20 19 14 16 33 45
1018 2189 2422 2147 1950 2045 1972 1857 1383 1598 1219 1123 669 388 199 521 633 680 646 620 500 457 389 262 274 85 61 24 9 10 13 1 0 10 7 13 11 7 8 9 9 7 15
1691 1229 2036 2182 1893 1776 1859 1668 1346 832 1049 1083 685 364 27 66 478 410 468 561 504 408 371 252 184 109 60 0 6 15 12 0 0 0 3 13 9 18 12 4 2 3 13
1589 1590 1207 1673 1657 1783 1476 1295 1251 772 774 755 639 310 60 0 207 91 381 357 455 376 338 191 148 68 21 11 9 8 1 0 0 2 4 9 17 15 11 8 8 8 10
674 919 1467 1426 1299 1465 1364 1228 1187 918 485 471 420 203 160 41 71 0 113 175 321 320 274 218 97 35 0 5 23 21 0 0 0 3 5 15 14 10 7 8 8 7 8
68 871 991 1378 1331 1372 1187 1008 785 860 249 284 310 167 21 6 1 110 44 156 168 72 133 56 28 75 2 17 30 22 1 0 0 2 9 11 14 10 6 7 6 7 3
0 0 1338 1511 1356 1438 1281 1292 760 653 383 261 276 52 16 0 0 8 86 100 73 45 42 0 35 6 35 31 31 4 2 0 0 1 9 12 10 9 6 6 3 4 4
0 0 0 1097 1566 1550 1534 1237 765 656 317 300 129 22 0 2 0 4 1 152 88 66 8 0 0 0 0 1 5 8 1 0 0 6 7 6 9 7 4 6 6 4 2
0 0 0 0 895 1694 1422 1419 1126 759 421 286 183 35 3 0 0 0 0 16 113 31 7 0 0 0 1 5 3 10 2 0 0 0 4 10 9 5 5 5 3 1 3
0 0 0 0 0 348 1880 1559 1297 1062 801 561 460 118 6 0 0 4 0 38 83 0 0 0 0 0 0 0 0 0 1 0 0 0 0 0 0 2 3 2 2 3 1
0 0 0 0 9 59 1293 1685 1244 1181 962 831 638 240 29 0 0 0 0 86 93 0 0 0 0 0 0 0 0 0 0 0 0 0 0 0 0 0 2 1 2 2 2
0 0 0 6 13 68 385 1445 1231 1164 1110 899 796 396 27 0 2 0 6 113 43 0 0 0 0 0 0 0 0 0 0 0 0 0 0 0 0 0 0 0 0 0 1
0 6 4 68 90 97 489 1388 1154 1047 920 871 811 768 392 37 17 103 63 86 13 0 0 0 0 0 0 0 0 0 0 0 0 0 0 3 0 0 0 0 0 0 0
0 1 115 132 106 82 683 1253 1048 1034 862 737 912 824 619 393 212 90 22 59 0 0 0 0 0 0 0 0 0 0 0 0 0 0 0 0 0 0 0 0 0 0 0
67 96 46 15 14 65 796 987 921 766 810 863 663 544 627 406 186 37 8 0 0 0 0 0 0 0 0 0 0 0 0 0 0 0 0 0 0 0 0 0 0 0 0
1 178 236 12 6 46 677 674 864 804 614 533 450 450 296 273 59 0 0 0 0 0 0 0 0 0 0 0 0 0 0 0 0 0 0 0 0 0 0 0 0 0 0
8 368 293 345 303 557 536 695 760 540 440 234 227 164 31 2 0 0 0 0 0 0 0 0 0 0 0 0 0 0 0 0 0 0 0 0 0 0 0 0 0 0 0
8 145 451 416 659 750 641 779 679 452 67 0 38 96 3 0 0 0 0 0 8 14 0 0 0 0 0 0 0 0 0 0 0 0 0 0 0 0 0 0 0 0 0
1 2 20 217 489 620 574 661 466 196 32 0 0 0 2 0 0 0 0 0 10 20 0 3 0 16 0 0 0 0 0 0 0 0 0 0 0 0 0 0 0 0 0

GFSSE_con_mlcape_147.txt.gz
CAPE
1261 1293 982 843 1174 1054 713 598 654 604 350 139 91 283 465 855 893 902 815 974 909 827 661 565 657 560 629 400 383 223 261 113 66 63 61 78 170 184 178 169 177 167 208
1363 1504 1253 957 1199 1204 857 1024 1013 708 462 254 152 557 463 917 900 896 939 874 795 827 677 618 487 516 417 290 144 134 81 153 60 14 3 35 72 140 141 101 184 151 166
1489 1603 1412 1158 1224 1250 1241 1267 1032 822 525 258 251 730 769 949 916 830 732 778 745 592 699 573 417 473 232 39 57 22 113 91 53 11 21 29 57 109 117 117 104 123 147
1680 1688 1477 1431 1264 1365 1260 1059 824 528 214 158 239 488 959 922 867 783 661 645 773 633 668 446 351 243 11 28 0 31 83 45 0 2 11 32 43 73 98 106 70 35 70
1919 1693 1661 1622 1354 1247 1175 901 630 574 553 260 148 395 742 841 908 823 876 819 582 665 612 342 177 67 2 10 37 62 55 29 0 4 15 44 43 53 61 53 52 38 29
1914 1886 2036 1805 1560 1491 1341 939 940 1168 857 467 278 256 573 870 885 843 761 773 755 680 416 244 94 172 0 9 32 68 31 2 0 2 9 50 67 37 54 64 58 42 34
2101 2044 2168 2016 1805 1725 1604 1361 1426 1620 1233 706 407 240 371 797 947 808 756 779 760 645 318 110 315 223 0 0 23 41 9 0 0 0 10 21 43 26 19 51 53 43 47
2077 2251 2292 2209 1955 1880 1794 1782 1670 1764 1470 989 610 403 413 693 978 790 777 678 702 569 420 257 393 79 17 25 20 11 0 0 0 0 2 5 9 18 18 26 39 36 46
1794 1751 1839 1926 1843 1820 1859 1557 1446 1774 1540 1189 793 508 439 1093 940 765 844 688 684 627 467 191 46 4 11 18 2 0 0 0 0 0 4 17 25 21 20 26 22 24 26
1213 1694 1477 1655 1630 1819 1862 1528 1134 1143 1066 1197 700 566 676 825 847 732 636 631 704 559 363 79 0 0 0 6 0 0 0 0 0 2 2 4 13 17 11 12 19 24 29
922 1028 1468 1365 1442 1372 1345 1251 1178 818 768 877 462 349 228 530 585 375 480 577 578 565 337 73 3 0 0 8 0 0 0 0 0 3 9 14 19 13 14 16 13 4 8
189 467 943 1287 1322 1356 1499 1145 1061 788 534 562 326 114 14 0 19 256 246 471 576 536 337 82 20 0 0 0 0 0 0 0 2 3 10 16 16 13 13 12 7 8 4
0 52 461 956 1014 1133 1175 1013 742 653 524 433 216 79 10 7 0 4 65 158 380 237 221 82 1 0 0 7 0 0 0 0 1 1 8 11 9 9 11 8 7 4 3
0 0 273 708 892 1091 1063 917 782 601 485 344 214 108 7 0 17 3 8 4 51 50 75 8 14 18 12 14 1 0 0 0 0 2 7 13 10 8 10 7 8 5 5
0 0 0 645 900 1102 1178 969 779 673 477 363 125 129 27 0 0 0 26 0 42 32 39 6 0 0 28 5 3 0 0 0 0 1 0 11 13 11 10 10 9 10 8
0 0 0 79 798 1263 1335 1133 891 740 559 411 327 136 38 9 1 0 1 7 0 72 14 0 0 0 0 1 0 0 0 0 0 1 3 14 12 10 11 13 10 9 5
0 0 0 0 143 1017 1202 1309 1066 906 702 570 250 26 0 0 7 0 0 2 0 65 2 0 0 0 0 0 0 0 0 0 0 0 1 2 5 10 9 11 8 4 3
0 0 0 0 0 0 546 1142 1258 1139 693 714 434 150 74 0 0 0 0 0 36 0 0 0 0 0 0 0 0 0 0 0 0 0 0 0 0 0 3 3 4 2 2
0 0 0 0 0 13 94 782 1097 1316 1103 876 740 391 192 40 1 2 12 4 65 0 0 0 0 0 0 0 0 0 0 0 0 0 0 0 0 0 0 0 1 2 2
0 0 0 0 7 92 202 719 952 1158 1132 1164 977 735 357 204 60 3 11 68 121 0 0 0 0 0 0 0 0 0 0 0 0 0 0 0 0 0 0 0 0 0 0
0 0 0 0 0 112 200 742 955 998 1023 900 1029 922 509 237 150 57 12 41 18 0 0 0 0 0 0 0 0 0 0 0 0 0 0 0 0 0 0 0 0 0 0
0 0 0 0 0 0 127 714 769 771 749 899 1006 932 794 512 166 158 17 17 4 0 0 0 0 0 0 0 0 0 0 0 0 0 0 0 0 0 0 0 0 0 0
2 1 0 0 0 0 110 487 595 645 820 750 733 530 529 626 461 212 80 29 0 0 0 0 0 0 0 0 0 0 0 0 0 0 0 0 0 0 0 0 0 0 0
5 18 9 10 0 0 169 549 489 589 556 476 450 420 386 306 382 283 94 6 0 0 0 0 0 0 0 0 0 0 0 0 0 0 0 0 0 0 0 0 0 0 0
3 3 12 37 102 233 257 524 554 500 301 227 194 260 84 17 87 38 0 0 0 0 0 0 0 0 0 0 0 0 0 0 0 0 0 0 0 0 0 0 0 0 0
3 0 0 29 214 426 441 542 504 363 181 83 48 63 0 0 0 0 1 0 0 0 0 0 0 0 0 0 0 0 0 0 0 0 0 0 0 0 0 0 0 0 0

GFSSE_con_mlcape_153.txt.gz
CAPE
840 920 820 1232 1289 1383 893 853 718 409 331 410 423 692 802 830 1070 1038 1036 768 896 601 687 586 632 533 482 313 142 6 5 10 108 120 98 146 231 203 167 55 7 56 70
944 1115 954 1505 1430 1259 849 918 799 546 349 326 426 711 707 844 896 969 992 916 649 716 520 543 515 491 512 461 385 175 40 7 73 83 59 76 109 191 140 107 34 14 121
1075 1233 1062 1474 1381 1264 936 1289 994 707 382 335 806 867 793 866 972 1051 944 935 498 840 574 469 543 612 470 334 202 106 40 3 0 24 32 36 93 156 126 84 78 7 17
1268 1297 1075 1454 1480 1297 1397 1446 1160 912 503 490 987 620 1105 949 910 1094 1020 613 314 764 642 351 411 404 391 261 68 61 2 2 0 0 0 32 80 134 132 89 101 78 8
1414 1404 1140 1532 1442 1342 1518 1522 1313 1051 634 533 903 981 1144 1134 1055 808 498 400 694 665 504 360 346 368 325 169 61 44 0 0 0 0 0 23 54 86 91 80 78 78 69
1470 1456 1347 1548 1549 1536 1591 1524 1391 783 497 543 843 1181 1301 1286 1212 848 676 926 803 710 416 326 361 320 249 100 6 0 0 0 0 0 0 30 58 86 80 73 78 75 72
1466 1466 1633 1746 1536 1653 1675 1403 930 821 704 565 811 1148 1341 1331 1195 1166 735 1068 819 615 416 374 391 271 144 74 20 0 0 0 0 0 0 10 50 77 69 50 60 63 69
1501 1532 1929 2089 1759 1486 1538 1321 1109 1401 984 775 812 984 1221 1323 1202 1168 1215 982 762 538 376 298 317 207 92 58 6 0 0 0 0 0 0 22 45 70 59 43 35 21 21
1748 1740 1919 1619 1297 1093 1217 1279 1468 1642 1237 1008 821 848 1060 1345 1216 1119 1037 1004 807 601 283 159 250 166 76 12 0 0 0 0 0 0 7 27 44 44 42 18 20 27 19
1959 1910 1492 1544 1380 1060 947 1106 1077 1072 943 1182 926 895 815 1110 1198 1032 1080 968 789 560 316 247 165 101 11 0 0 0 0 0 0 1 15 23 38 34 28 45 49 45 37
1420 1642 1472 1434 1297 1164 1020 1070 1046 868 910 854 764 838 896 796 1066 991 999 1008 901 474 351 129 78 37 1 0 0 0 0 0 0 1 7 27 38 39 27 29 18 11 14
815 1057 1331 1348 1321 1253 1175 1031 1043 815 558 551 378 292 312 499 648 635 659 690 897 384 233 140 89 0 0 0 0 0 0 0 0 6 14 12 10 11 9 6 12 11 10
126 517 862 989 1122 1153 1041 864 768 746 413 252 145 131 169 269 277 296 278 272 163 211 52 108 10 0 0 0 0 0 0 0 0 0 7 9 8 21 16 14 8 8 5
0 0 363 768 964 1051 764 610 474 400 342 188 109 153 122 72 96 68 134 203 148 120 21 2 0 0 0 0 0 0 0 0 0 0 7 13 8 11 18 13 13 10 10
0 0 0 16 354 765 706 424 417 447 384 220 136 105 62 46 26 9 13 34 136 107 61 1 0 0 0 0 0 0 0 0 0 1 4 10 10 7 8 12 5 6 12
0 0 0 0 26 285 462 534 476 469 354 279 170 91 74 108 11 0 0 32 64 102 63 15 0 0 0 0 0 0 0 0 0 3 3 7 19 12 8 6 16 16 11
0 0 0 0 60 128 295 401 413 563 464 366 355 246 268 77 3 0 0 6 36 79 17 4 0 0 0 0 0 0 0 0 0 0 3 11 16 12 14 4 3 13 13
0 0 0 0 0 154 147 170 373 520 529 594 536 423 353 164 40 4 2 1 50 60 22 0 0 0 0 0 0 0 0 0 0 0 0 2 11 9 10 12 15 14 12
0 0 0 0 0 0 181 196 235 423 472 572 697 555 393 206 42 18 18 16 63 38 33 1 0 0 0 0 0 0 0 0 0 0 2 2 1 2 7 11 8 9 11
0 0 0 0 0 0 0 44 22 111 372 551 634 493 343 121 16 7 1 44 49 7 9 1 0 0 0 0 0 0 0 0 0 0 0 0 0 0 0 0 1 7 12
0 0 0 0 0 0 0 0 0 10 215 486 621 503 282 125 45 0 20 40 34 32 29 19 0 0 1 2 0 0 0 0 0 0 0 0 0 0 0 0 0 0 2
0 0 0 0 0 0 0 0 1 28 181 423 595 543 385 42 17 3 0 55 23 1 5 16 0 0 0 6 0 0 0 1 0 0 0 0 0 0 0 0 0 0 0
0 0 0 0 0 0 0 0 0 12 117 187 293 433 228 23 70 14 3 123 27 6 3 1 0 0 0 0 0 0 0 0 0 0 0 0 0 0 0 0 0 0 0
0 0 0 0 0 0 0 0 0 0 10 175 163 278 350 292 120 67 38 144 51 10 2 0 0 0 0 0 0 0 0 0 0 0 0 0 0 0 0 0 0 0 0
0 0 0 0 0 0 0 0 0 0 1 102 136 194 267 105 292 189 183 92 67 3 0 0 0 0 0 0 4 0 0 0 0 0 0 0 0 0 0 0 0 0 0
0 0 0 0 0 0 0 0 0 0 30 10 20 122 115 50 105 295 345 169 81 8 0 1 0 0 0 0 0 0 0 0 0 0 0 0 0 0 0 0 0 0 0

GFSSE_con_mlcape_159.txt.gz
CAPE
542 829 623 774 847 821 876 495 314 550 868 802 757 982 1180 1072 1276 1138 1095 835 691 508 336 674 494 254 96 39 32 96 119 156 174 212 189 172 25 21 9 0 3 12 17
750 868 791 773 1051 765 1001 847 491 333 553 747 888 758 1104 1210 1065 1068 929 780 683 554 488 659 573 560 317 126 22 100 128 90 197 120 103 93 132 5 0 4 14 20 30
836 1026 774 1095 1485 1075 1274 948 830 558 299 432 648 807 966 1106 1224 1175 811 659 630 826 951 795 706 437 252 107 36 61 101 164 104 56 90 139 185 180 4 4 50 60 60
1022 1052 717 1644 1558 1215 1033 1246 988 602 364 717 878 698 960 1115 1248 1161 850 649 738 831 1019 857 528 302 167 72 26 58 85 81 39 17 24 47 65 138 90 11 33 44 46
1237 1124 781 1907 1574 1228 1282 1199 1103 858 263 1165 593 988 777 1242 1268 1131 913 733 936 1046 961 860 558 358 180 81 20 36 56 6 0 23 39 61 116 136 84 49 27 23 68
1394 1311 937 1587 1437 1160 1118 1513 1151 1005 469 1070 727 687 1308 1159 1280 1100 874 734 1023 997 866 819 610 359 71 54 35 25 0 0 0 24 76 70 89 96 85 88 55 51 46
1500 1467 1087 1679 1506 1121 1253 1567 1354 1117 710 780 687 1349 1341 1154 1270 1028 897 1163 965 989 928 723 511 281 37 16 0 0 0 0 0 23 40 44 61 71 76 81 83 57 8
1515 1502 1343 1691 1662 1349 1297 1636 1466 954 713 728 867 1183 1159 1211 1154 1067 1006 1213 1023 966 946 691 415 284 41 5 0 0 0 0 0 5 13 24 34 36 42 50 64 72 51
1599 1530 1629 1836 1536 1453 1291 1521 1479 833 972 797 920 1217 1149 1090 1072 1147 830 1199 1122 1141 973 740 495 144 13 1 0 0 0 0 0 2 8 17 9 14 34 40 59 53 58
1685 1645 1662 1798 1648 1635 1540 1593 1454 1251 1311 1076 1044 750 1238 975 1101 923 1070 1138 1108 1036 787 650 417 129 33 0 0 0 0 0 0 2 9 16 19 30 35 31 21 26 34
1645 1749 1736 1674 1603 1361 988 1336 1428 1392 1053 1061 1132 802 947 1362 1254 1095 931 1045 1111 889 737 597 378 72 5 0 0 0 0 0 0 4 9 20 20 21 31 35 42 41 40
1279 1677 1814 1694 1554 1513 1235 1084 1057 914 846 876 1112 1099 895 1107 1234 1126 935 845 1036 823 720 539 252 35 0 0 0 0 0 0 0 2 12 15 17 23 20 15 11 10 10
1042 1452 1745 1686 1627 1488 1339 1158 978 788 727 855 840 804 777 798 1074 1087 1054 862 944 713 635 422 171 11 0 0 0 0 0 0 0 8 16 23 19 12 13 11 12 18 18
53 785 1566 1579 1523 1418 1389 1291 1141 850 761 753 669 599 545 344 466 693 796 506 783 695 644 401 66 0 0 0 0 0 0 0 2 9 17 13 11 17 27 30 29 25 16
2 276 926 1189 1299 1308 1255 957 727 608 563 561 488 446 405 221 139 175 156 188 287 464 386 133 1 0 0 0 0 0 0 0 3 7 19 10 26 53 47 39 29 19 9
0 41 335 510 689 761 826 655 531 522 422 303 281 312 243 236 159 198 133 126 216 274 187 42 0 0 0 0 0 0 0 0 3 12 18 25 47 57 44 37 30 15 6
0 0 0 13 202 347 439 319 251 182 326 223 201 143 134 167 247 246 223 219 322 284 160 5 0 0 0 0 0 0 0 4 1 7 21 46 40 39 33 33 13 11 6
0 0 0 0 0 95 270 209 97 96 111 112 210 127 109 134 210 214 128 97 158 185 147 15 0 0 0 0 0 0 0 12 0 9 19 23 34 31 23 26 21 12 11
0 0 0 0 0 0 88 144 80 68 123 121 191 142 147 194 162 115 89 50 95 58 64 5 1 0 0 0 0 0 0 11 7 13 10 11 15 24 27 22 18 14 11
0 0 0 0 0 0 0 88 42 26 19 38 106 153 276 319 235 58 24 57 77 19 9 16 2 2 1 0 0 0 0 1 7 9 13 13 16 18 20 16 19 14 14
0 0 0 0 0 0 0 0 0 1 2 13 37 181 335 259 234 218 119 78 117 67 26 3 3 0 1 1 0 2 0 4 1 16 16 29 22 11 7 8 11 19 21
0 0 0 0 0 0 0 0 0 0 1 0 3 35 265 284 258 245 260 162 79 76 17 15 1 2 2 1 1 0 36 12 5 16 17 17 9 0 0 0 0 0 2
0 0 0 0 0 0 0 0 0 0 0 0 0 12 63 127 125 190 185 174 7 20 44 9 3 2 2 2 0 3 14 5 12 1 3 2 0 0 0 0 0 0 0
0 0 0 0 0 0 0 0 0 0 0 0 0 5 1 28 46 109 54 0 0 36 44 10 3 2 2 1 0 0 1 0 0 0 0 0 0 0 0 0 0 0 0
0 0 0 0 0 0 0 0 0 0 0 0 0 0 3 5 21 84 16 6 44 44 52 5 2 0 0 0 0 0 3 0 0 0 0 0 0 0 0 0 0 0 0
0 0 0 0 0 0 0 0 0 0 0 0 0 0 0 7 5 4 20 37 65 65 43 23 2 0 1 1 2 0 4 4 0 0 1 0 0 0 0 0 0 0 0

GFSSE_con_mlcape_165.txt.gz
CAPE
954 745 771 1055 773 634 710 759 916 753 819 1277 1241 1246 1186 1250 897 1186 1059 842 568 472 553 242 279 216 99 317 316 174 158 408 392 104 0 0 85 292 288 138 51 16 5
469 622 742 1561 1124 817 397 518 770 924 745 647 970 1245 1210 1200 1232 1061 948 823 662 488 873 700 441 248 104 239 274 198 137 336 342 399 98 0 52 187 246 140 93 113 117
407 493 205 1481 1286 1009 947 599 345 639 751 909 566 915 1134 1056 1152 1102 1015 841 641 680 957 865 599 294 205 109 233 274 149 139 141 83 154 14 3 160 221 184 130 104 131
439 522 0 1347 1609 1013 1500 885 489 203 460 564 578 691 901 1188 1004 1022 981 782 669 857 945 690 468 329 193 116 112 157 137 56 36 138 150 122 29 83 185 107 146 120 88
296 403 169 812 1688 1161 1617 1169 772 329 448 776 815 431 952 1290 1085 1104 964 861 677 1068 912 722 554 356 196 115 245 187 125 123 97 206 171 154 55 43 71 91 74 90 79
493 430 661 564 1695 1435 1573 1377 959 511 468 1071 708 1107 932 1339 1261 1195 1114 914 745 996 951 798 628 446 210 158 316 170 173 206 97 115 183 83 94 94 61 74 71 75 81
1206 857 1129 1039 1898 1370 1809 1667 1252 830 322 1408 588 1060 1124 1314 1351 1307 1260 999 932 1057 1065 855 592 442 293 207 123 59 86 103 118 105 111 99 91 94 80 70 68 57 67
1237 1171 1160 1935 1760 1443 1697 1575 1600 1243 559 1253 877 1103 1409 1354 1520 1363 1222 974 1100 1211 1111 893 589 331 157 73 11 0 22 33 52 76 73 104 86 114 83 63 49 52 53
1318 1287 1203 1372 1655 1569 1711 1520 1536 1495 922 706 950 1501 1214 1485 1513 1299 1103 952 1017 1301 1167 998 665 292 84 22 0 0 0 14 29 37 75 46 56 86 81 67 31 41 42
1399 1351 1312 1257 1442 1395 1234 1307 1323 1499 889 854 945 1372 1328 1388 1424 1304 1127 989 1088 1281 1160 1051 663 236 95 7 0 0 0 5 23 47 53 41 49 51 50 24 6 3 6
1442 1395 1414 1670 1479 1267 1211 1447 1030 1316 978 1096 970 1004 1089 816 1154 1147 825 811 919 1237 1114 978 634 205 41 0 0 0 0 3 33 44 39 35 44 34 15 10 4 4 0
1384 1235 927 1197 1527 1477 1454 1408 1294 1193 860 1137 762 504 262 395 774 751 866 721 879 1102 931 712 639 190 0 0 0 0 1 1 51 30 29 28 23 21 10 1 3 6 5
905 1145 962 1453 1649 1472 1397 1239 1332 1160 999 1058 1143 1109 880 568 564 634 865 736 706 873 783 625 553 113 33 5 0 0 1 8 40 15 17 27 21 17 14 19 19 12 16
43 836 1026 1151 1358 1456 1241 1297 1296 1172 1012 955 973 1013 1348 944 809 784 605 523 733 759 712 682 493 240 60 8 1 0 0 1 20 0 12 20 19 31 54 38 27 19 12
1 58 594 1096 992 894 1157 705 507 454 790 709 949 995 1011 811 891 763 556 591 735 734 642 522 581 239 85 0 1 0 0 1 1 0 25 25 61 54 45 34 25 8 11
0 4 116 524 746 433 353 263 248 245 278 390 365 570 940 685 587 444 482 524 615 665 600 558 589 133 24 0 0 0 1 5 0 4 19 32 41 47 49 38 26 11 11
0 0 2 89 437 719 375 352 784 830 833 357 398 424 340 250 472 456 231 386 628 385 399 686 398 202 12 0 0 0 0 2 0 8 34 29 26 37 56 42 25 16 8
0 0 6 69 251 632 274 430 642 550 657 712 626 704 643 561 613 266 222 273 419 341 439 386 322 191 34 2 0 0 1 1 3 3 82 46 33 13 40 57 45 34 24
0 0 2 55 101 174 160 817 580 429 379 209 86 267 217 340 251 160 270 141 233 209 387 315 278 121 55 4 0 0 0 0 1 31 81 56 39 45 43 34 53 49 40
0 0 0 0 0 5 106 431 383 267 223 145 88 70 114 100 108 84 114 235 276 169 228 197 136 46 18 0 0 0 0 8 27 40 43 54 56 47 48 46 42 43 51
0 0 0 0 0 0 0 0 141 13 16 48 41 37 84 106 101 95 69 92 171 131 123 214 113 16 2 0 0 0 0 6 15 42 48 68 46 38 53 39 59 45 37
0 0 0 0 0 0 0 0 0 0 0 16 8 4 74 61 86 91 78 98 142 126 124 149 63 5 2 1 0 1 1 5 23 42 62 80 72 47 54 45 21 39 32
0 0 0 0 0 0 0 0 0 0 0 0 4 5 39 55 94 86 109 99 123 137 97 85 91 7 1 2 0 0 0 0 36 45 76 86 57 37 33 26 26 29 29
0 0 0 0 0 0 0 0 0 0 0 2 9 8 33 34 46 73 60 68 68 65 90 57 58 27 13 2 3 0 0 0 0 0 39 57 60 52 37 26 17 9 22
0 0 0 0 0 0 0 0 0 0 0 5 13 29 30 35 49 63 17 56 63 121 118 95 81 37 12 4 2 0 0 0 0 0 0 32 38 46 19 24 24 12 3
0 0 0 0 0 0 0 0 0 0 1 1 13 20 20 1 1 1 52 78 59 63 66 65 99 78 17 3 2 0 0 0 0 15 0 3 9 41 22 40 27 7 0

GFSSE_con_mlcape_168.txt.gz
CAPE
1010 379 603 655 634 719 576 831 896 1120 1374 1211 1140 1164 1089 908 940 995 871 624 524 561 393 352 258 158 333 113 99 209 468 448 191 5 40 152 230 231 161 73 109 91 22
1011 494 882 816 702 668 758 721 907 714 900 1047 1183 1087 1057 1151 1055 857 832 667 522 769 732 525 354 269 91 106 80 248 382 300 220 48 1 98 236 279 184 93 43 125 91
703 507 1253 1245 941 664 454 600 786 834 793 524 838 1104 1032 956 992 938 865 723 645 785 797 613 326 112 162 126 70 184 186 192 63 115 66 0 164 226 176 80 94 99 73
600 377 1243 1623 1212 973 989 465 354 536 648 717 622 721 1050 1142 1112 1023 894 695 797 815 772 542 418 276 108 15 21 149 247 147 151 110 53 29 88 211 168 125 95 68 48
525 74 840 1720 1263 1270 1305 865 419 166 393 516 378 645 982 1119 1158 1014 1008 768 980 990 741 607 424 216 87 76 221 360 323 139 147 99 63 51 59 120 115 81 62 58 61
344 65 715 862 1609 1364 1520 1132 608 250 412 666 900 531 1032 1164 1262 1179 1044 1064 1115 1075 850 646 481 243 140 293 252 248 227 119 98 44 57 66 94 112 142 64 60 50 44
286 676 763 412 1488 1538 1665 1432 946 482 308 1261 561 1114 827 1152 1261 1264 1165 1005 913 1054 939 659 538 398 274 116 71 180 129 57 32 63 52 70 75 112 84 64 40 17 13
915 887 953 946 1809 1621 1687 1899 1349 861 252 1356 564 811 1370 1147 1254 1339 1271 935 788 1062 956 755 532 302 137 6 0 21 33 92 34 31 6 32 76 101 66 47 31 17 17
1122 1270 1344 1297 1721 1794 1642 1711 1220 1426 727 858 710 1331 1164 1292 1307 1295 1271 1068 933 1044 986 784 499 272 78 0 0 0 1 23 26 34 25 1 38 75 61 44 12 11 11
1261 1257 1443 1497 1667 1584 1600 1591 1302 1316 1141 545 785 1319 1197 1326 1365 1170 1066 841 890 976 898 952 565 145 74 0 0 0 0 37 20 29 32 13 30 28 16 16 6 0 3
1277 1233 1589 1137 1456 1401 1267 1314 1065 1091 1136 799 803 1080 1261 902 980 1130 706 832 912 1064 914 957 602 158 26 0 0 0 0 28 26 14 15 34 31 6 9 6 3 1 0
1336 1261 1281 1175 1097 1220 1304 1451 1076 1070 1110 935 603 350 677 602 917 881 828 725 559 1018 868 639 588 175 0 0 0 0 0 9 17 12 0 25 31 15 6 5 5 6 2
1334 1250 1179 1593 1443 1278 1144 1062 1121 1118 1084 1106 1021 790 244 441 557 566 730 575 452 728 601 467 538 70 0 0 0 0 1 24 0 0 0 16 26 33 23 4 8 7 10
1147 1130 905 1381 1436 1489 1181 1099 993 753 760 686 801 631 492 377 470 485 519 531 706 744 562 487 473 241 18 19 0 0 0 5 0 0 0 8 35 62 41 29 16 7 11
477 825 1057 826 1457 1501 1248 1248 1162 1083 740 586 596 616 664 431 360 367 278 295 431 407 547 455 334 208 80 46 0 3 0 0 0 0 0 11 47 46 43 26 12 8 10
3 701 1069 1154 1029 915 1219 889 417 287 785 618 856 816 591 535 346 420 379 314 375 405 381 367 362 133 87 0 0 0 0 0 0 0 0 14 21 31 43 39 12 11 5
0 9 292 727 805 679 391 386 298 524 421 391 326 450 654 621 489 307 186 86 317 230 249 443 264 148 66 0 0 0 0 0 0 0 5 8 14 30 22 41 34 31 25
0 0 29 375 677 536 392 582 597 596 609 680 445 554 499 546 335 281 84 28 210 243 241 293 399 116 1 0 0 0 0 0 0 5 15 3 2 5 14 30 48 41 28
0 0 0 68 277 574 319 634 568 425 476 294 350 432 174 376 405 104 105 110 91 167 222 283 242 46 7 0 0 0 0 1 7 52 24 33 18 0 5 28 27 49 26
0 0 0 42 96 244 264 607 401 277 280 146 83 76 104 182 151 42 43 94 74 82 120 191 131 69 10 0 0 0 0 4 14 27 22 38 51 18 5 5 11 30 45
0 0 0 10 20 94 82 381 192 0 37 57 21 0 69 61 44 43 21 45 66 38 76 92 82 53 8 0 0 0 0 0 2 11 1 19 29 23 26 4 28 40 47
0 0 0 0 0 0 0 21 113 0 0 0 26 0 0 25 32 33 18 11 16 37 57 15 31 0 0 0 1 5 0 1 8 15 1 16 39 59 59 42 39 31 34
0 0 0 0 0 0 0 0 0 0 0 0 0 0 0 4 1 58 31 4 8 55 37 7 6 2 17 2 0 1 1 0 2 0 9 25 38 54 32 45 55 49 36
0 0 0 0 0 0 0 0 0 0 0 0 0 0 0 11 43 30 35 1 3 28 37 2 2 5 16 1 2 0 0 0 0 0 0 0 35 50 25 18 80 55 40
0 0 0 0 0 0 0 0 0 0 0 0 6 6 15 36 27 13 0 1 4 19 42 33 9 7 2 0 3 0 0 0 0 0 0 3 19 29 30 0 13 17 22
0 0 0 0 0 0 0 0 0 0 0 0 4 7 23 2 2 0 0 1 7 19 33 34 40 25 16 4 2 1 0 0 0 0 0 0 9 17 5 2 12 15 1

GFSSE_con_mlcape_171.txt.gz
CAPE
527 267 346 562 564 490 714 1168 1354 1259 1109 1075 1095 1090 968 1015 928 846 644 666 542 559 350 210 132 169 76 5 401 412 364 214 40 80 168 152 183 195 148 48 92 4 7
545 479 541 725 628 612 770 943 933 1175 1136 1077 1072 1049 1055 1093 998 870 713 596 945 782 510 293 233 150 29 69 309 365 275 166 91 30 97 83 111 204 150 71 84 26 27
521 811 754 801 742 746 685 894 896 791 828 1047 1040 1052 987 1005 994 986 774 711 873 784 480 270 143 55 13 12 278 397 198 119 94 43 28 46 128 252 207 136 74 53 38
299 895 1009 1018 767 550 637 633 791 934 820 619 730 831 1107 1015 1035 976 882 907 986 880 539 424 255 44 0 116 441 322 260 196 71 12 13 26 74 105 149 142 103 22 34
342 609 1418 1334 1024 1061 767 367 187 454 573 563 661 809 932 1049 1030 983 840 1004 1003 836 675 424 189 71 66 367 440 264 195 117 19 0 7 25 61 96 165 78 19 20 41
317 536 1749 1617 1143 1456 1159 788 204 31 265 908 437 503 1015 997 1042 1109 1005 1063 918 916 707 458 219 161 217 303 339 311 184 69 2 0 0 31 58 98 109 68 19 24 22
110 609 1116 1536 1199 1778 1566 1107 550 105 523 728 731 622 813 1007 1106 1304 1121 997 700 975 775 598 410 244 49 86 131 139 146 48 3 5 6 8 35 56 36 18 11 13 12
411 603 924 1287 1266 2027 1769 1483 1002 476 375 1124 270 871 688 1003 940 1394 1177 844 768 1058 827 639 413 145 0 0 4 54 102 23 0 4 16 20 45 45 25 21 13 11 4
728 723 756 1171 1487 1740 1843 1898 1386 1020 478 1210 489 1020 1199 1113 1061 1209 1163 692 697 637 801 613 375 89 0 0 0 4 32 6 0 3 17 26 46 50 30 18 8 2 4
1029 1067 1119 1083 1846 1632 1809 1879 1429 1441 921 698 682 1345 878 1308 1079 1075 1046 843 715 638 873 653 509 139 0 0 0 0 1 3 0 0 17 27 41 43 23 13 1 6 2
1360 1489 1310 1127 1439 1285 1331 1518 1254 1144 1262 764 725 1135 1108 892 1003 916 727 780 898 807 974 818 415 138 0 0 0 0 0 1 3 0 0 20 16 11 15 8 4 7 2
1229 1407 1490 1289 1335 1150 1279 1293 1028 957 1054 873 639 625 959 685 936 900 687 805 539 712 880 960 466 149 0 0 0 0 0 0 0 0 0 0 6 25 16 6 9 9 8
1251 1349 1383 1267 1413 1435 1417 1348 1139 950 977 776 486 331 211 517 558 792 776 607 334 730 576 644 514 84 0 0 0 0 0 0 0 0 0 0 17 33 15 3 14 10 13
1255 1025 1150 1254 1281 1140 1193 1115 1082 1082 965 714 754 743 506 314 455 435 513 479 370 391 420 349 273 86 0 25 1 1 14 0 0 0 0 0 37 30 36 18 5 14 14
1293 1151 1018 1313 1362 1285 1100 1020 1062 908 826 605 732 631 585 400 264 245 177 241 300 358 432 317 292 107 26 38 0 4 9 0 0 0 0 6 24 7 44 34 10 9 5
1207 1221 893 1278 1457 1431 1155 978 1156 1019 658 648 591 526 584 500 383 302 195 178 203 258 260 441 311 139 43 0 0 0 1 0 0 0 1 7 10 20 30 32 36 26 25
470 1134 975 704 1250 1353 1191 861 826 973 683 614 769 796 593 465 220 141 142 94 212 235 270 349 321 104 16 0 0 0 1 0 0 0 10 14 33 17 18 27 48 38 31
2 642 896 969 780 824 888 691 457 405 331 399 469 533 436 472 366 169 27 0 85 132 100 161 191 79 0 0 0 0 0 0 3 11 14 8 12 23 21 35 40 48 46
0 128 850 1007 679 520 539 543 467 412 253 280 329 206 199 390 318 101 40 23 33 97 149 171 84 14 0 0 0 0 3 5 33 40 20 14 5 5 21 13 48 47 45
0 0 274 550 586 412 530 456 418 344 280 89 145 189 130 67 216 34 23 45 22 69 79 111 61 3 0 0 0 0 1 6 23 27 30 24 18 0 15 16 25 9 41
0 0 0 312 432 473 474 401 344 260 259 79 26 58 45 32 57 16 29 44 21 31 58 62 11 0 1 0 0 0 0 4 15 30 19 30 10 4 0 0 25 27 25
0 0 2 32 196 354 440 330 275 71 15 0 0 0 0 3 3 3 0 16 29 16 0 10 13 0 1 2 1 0 4 6 2 3 7 8 11 7 11 16 26 28 16
0 0 0 7 11 33 116 185 16 1 0 0 0 0 0 0 0 4 5 3 0 0 2 2 4 6 3 1 0 1 0 5 9 7 10 9 5 9 15 14 17 36 5
0 0 0 0 0 0 0 0 0 0 0 0 0 0 0 0 9 7 20 0 2 9 12 4 2 1 1 12 8 0 0 0 5 5 1 1 9 16 27 34 21 25 11
0 0 0 0 0 0 0 0 0 0 0 0 0 0 0 0 17 21 10 0 1 6 8 9 0 0 1 13 5 0 0 0 0 0 0 1 0 8 35 30 7 19 14
0 0 0 0 0 0 0 0 0 0 0 0 0 0 0 0 4 1 2 0 0 13 7 8 4 0 1 0 3 1 0 0 0 0 0 0 0 0 27 4 0 3 6

GFSSE_con_mlcape_174.txt.gz
CAPE
230 482 683 801 567 578 808 952 1058 986 1021 969 1154 942 1055 784 796 780 873 619 588 337 209 117 62 17 10 377 351 287 219 100 273 223 198 133 164 165 146 89 11 7 4
284 688 621 729 520 575 1010 1398 1445 1034 726 932 1114 920 938 1053 864 795 813 999 824 419 288 152 141 0 119 277 389 233 188 161 210 158 129 117 105 165 117 64 59 39 10
527 720 754 774 632 663 830 890 1076 1031 978 726 863 954 869 879 958 848 836 956 930 440 281 112 34 0 143 398 356 303 278 226 107 92 73 54 105 208 163 62 26 54 53
548 661 815 882 841 763 843 857 861 762 808 820 892 755 806 862 919 901 884 982 952 550 367 190 33 13 379 377 330 162 232 125 75 30 10 14 74 89 99 35 18 60 33
604 560 744 945 834 791 726 824 846 845 736 637 698 862 946 1055 906 955 950 1005 956 660 404 180 96 278 452 457 384 203 175 53 30 19 21 19 70 128 118 31 9 20 17
376 567 1110 1004 884 935 546 286 277 503 548 474 608 791 889 1116 995 1043 963 927 954 718 440 196 161 358 409 390 352 394 123 15 0 0 19 46 50 68 36 24 6 8 11
22 901 1623 1353 1202 1430 1118 535 131 193 654 806 380 442 1034 1149 1183 1123 1053 855 878 842 595 413 185 166 147 155 278 311 10 0 0 0 13 36 60 49 42 8 6 16 4
279 1164 1746 1705 1440 1813 1567 1069 583 331 993 733 862 408 799 1113 1324 1293 1122 828 870 964 681 519 196 27 2 3 134 299 11 0 0 0 14 27 41 48 36 11 4 10 7
452 947 1527 1709 1446 2216 1817 1516 1073 484 1178 1008 266 839 797 1188 1360 1403 1008 821 760 926 818 477 156 6 0 0 53 120 24 0 0 1 15 19 56 32 35 17 5 2 4
742 945 1240 1671 1653 2239 1838 1847 1498 1037 874 1283 535 1269 983 1074 1174 1343 1108 788 843 787 922 609 274 0 0 0 0 44 0 0 0 0 0 10 23 20 31 20 6 5 11
825 1023 1268 1298 1425 1721 1776 2075 1827 1516 1068 978 695 1315 974 1047 934 1117 920 799 841 818 977 710 411 45 0 0 0 0 0 0 0 0 0 4 4 12 30 18 9 6 6
1039 1070 1200 1129 1350 1547 1585 1735 1506 1363 1331 947 584 833 938 827 997 1016 765 754 850 966 1013 932 431 95 0 0 0 0 0 0 0 0 0 0 7 25 23 17 8 9 8
1393 1485 1372 1154 1346 1258 1172 1187 1216 1151 1084 1046 567 341 917 758 807 739 593 557 454 785 760 895 442 64 0 0 0 0 0 0 0 0 0 0 24 27 21 11 26 25 26
1242 1434 1477 1331 1279 1297 1261 1292 1200 1100 985 873 670 396 239 348 388 552 659 446 412 377 449 401 311 35 1 9 15 0 0 0 0 0 0 10 21 23 31 27 24 31 27
1321 1398 1447 1346 1334 1387 1313 1183 1148 1097 1016 913 781 757 578 435 454 454 457 352 405 366 326 207 121 56 8 5 0 18 1 0 0 0 21 16 16 23 27 39 30 29 34
1224 1242 1294 1327 1320 1241 1126 1179 1096 993 897 930 895 841 738 579 395 334 286 278 329 349 360 300 205 83 0 0 0 14 13 0 0 2 56 20 18 30 12 50 46 39 34
897 1232 1231 1291 1293 1266 1092 915 878 1009 887 747 711 757 756 600 442 319 262 278 285 297 257 317 221 51 0 0 0 10 6 0 0 31 37 21 22 16 26 29 37 47 39
0 1019 1244 1421 1391 1189 1130 878 880 1043 944 794 765 764 730 533 311 103 208 199 231 184 153 209 169 44 0 0 0 8 9 0 12 25 35 27 18 14 25 34 63 43 44
0 255 1234 1200 1378 1337 1045 845 636 648 529 513 547 688 699 651 368 172 37 37 106 89 92 96 59 0 0 0 0 4 3 0 24 34 32 33 17 22 32 17 14 37 31
0 35 1118 1043 1097 1046 918 635 425 375 321 292 334 376 417 416 279 123 53 44 52 67 68 57 30 0 0 0 0 2 1 7 14 26 43 38 24 20 36 12 4 22 81
0 6 845 1023 735 756 624 485 422 401 213 22 105 160 130 128 199 47 24 33 29 48 47 29 1 0 0 0 1 0 4 12 34 31 23 32 31 9 17 19 1 6 8
0 0 597 942 827 709 618 385 308 261 134 18 50 110 105 58 34 41 0 0 0 0 4 9 0 4 1 1 3 3 28 18 5 0 10 34 13 9 4 33 15 18 22
0 0 335 859 814 700 555 328 190 74 47 31 36 46 26 0 0 13 3 5 0 0 0 0 5 9 14 1 1 22 16 20 6 1 6 18 30 7 2 17 30 6 20
0 2 258 646 658 563 501 284 180 58 0 0 0 0 12 0 3 0 8 7 0 0 0 3 3 9 14 13 0 0 0 1 0 6 1 9 12 0 2 8 4 15 12
0 5 111 220 326 259 323 233 145 81 0 0 0 0 0 0 1 5 7 12 0 2 14 10 7 6 10 5 0 6 0 0 0 3 3 1 2 2 5 4 17 20 17
0 8 32 118 100 63 60 17 5 0 0 0 0 0 0 0 9 26 23 9 0 0 5 12 7 3 3 2 0 0 0 0 0 0 0 1 0 1 2 0 4 10 4